Alamogordo, NM

8:58 PM MDT on July 25, 2017 (GMT -0600)
Alamogordo-White Sands Regional

Weather History for KALM - May, 2013

Change the Weather History Date:

Wednesday, May 1, 2013

  Actual Average Record
Temperature  
Mean Temperature 70 °F -  
Max Temperature 89 °F 81 °F 92 °F (1961)
Min Temperature 50 °F 49 °F 34 °F (1967)
Cooling Degree Days 4    
Growing Degree Days 20 (Base 50)    
Moisture  
Dew Point 10 °F    
Average Humidity 10    
Maximum Humidity 19    
Minimum Humidity 5    
Precipitation  
Precipitation 0.00 in - - ()
Sea Level Pressure  
Sea Level Pressure 29.95 in    
Wind  
Wind Speed 7 mph (SSE)    
Max Wind Speed 21 mph    
Max Gust Speed 31 mph    
Visibility 10 miles    
Events      
Averages and records for this station are not official NWS values.
T = Trace of Precipitation, MM = Missing Value Source: NWS Daily Summary

Daily Weather History Graph

Daily Weather History Graph

Search for Another Location

Airport or City:

Trip Planner

Search our weather history database for the weather conditions in past years. The results will help you decide how hot, cold, wet, or windy it might be!

Date:

Astronomy

May. 01, 2013 Rise Set
Actual Time 6:16 AM MDT 7:46 PM MDT
Civil Twilight 5:50 AM MDT 8:12 PM MDT
Nautical Twilight 5:18 AM MDT 8:43 PM MDT
Astronomical Twilight 4:45 AM MDT 9:16 PM MDT
Moon 12:56 AM MDT (5/1) 11:57 AM MDT (5/1)
Length of Visible Light 14h 22m
Length of Day
13h 29m
Waning Gibbous, 58% of the Moon is Illuminated
May 1
Waning Gibbous
May 2
Last Quarter
May 9
New
May 17
First Quarter
May 24
Full

Hourly Weather History & Observations

Time (MDT) Temp. Dew Point Humidity Pressure Visibility Wind Dir Wind Speed Gust Speed Precip Events Conditions
12:15 AM 66.2 °F 6.8 °F 10% 29.85 in 10.0 mi East 4.6 mph - N/A   Clear
12:35 AM 66.2 °F 8.6 °F 11% 29.86 in 10.0 mi East 4.6 mph - N/A   Clear
1:15 AM 64.4 °F 8.6 °F 11% 29.86 in 10.0 mi East 8.1 mph - N/A   Clear
1:35 AM 64.4 °F 8.6 °F 11% 29.85 in 10.0 mi East 6.9 mph - N/A   Clear
1:55 AM 66.2 °F 8.6 °F 11% 29.85 in 10.0 mi East 5.8 mph - N/A   Clear
2:15 AM 62.6 °F 8.6 °F 12% 29.85 in 10.0 mi East 5.8 mph - N/A   Clear
2:35 AM 62.6 °F 8.6 °F 12% 29.85 in 10.0 mi East 3.5 mph - N/A   Clear
3:15 AM 55.4 °F 10.4 °F 17% 29.87 in 10.0 mi South 6.9 mph - N/A   Clear
3:35 AM 57.2 °F 8.6 °F 14% 29.88 in 10.0 mi Calm Calm - N/A   Clear
3:55 AM 57.2 °F 6.8 °F 13% 29.89 in 10.0 mi NE 3.5 mph - N/A   Clear
4:15 AM 57.2 °F 6.8 °F 13% 29.89 in 10.0 mi ENE 4.6 mph - N/A   Clear
4:35 AM 57.2 °F 8.6 °F 14% 29.89 in 10.0 mi NNE 5.8 mph - N/A   Clear
4:55 AM 57.2 °F 8.6 °F 14% 29.89 in 10.0 mi North 6.9 mph - N/A   Clear
5:15 AM 57.2 °F 10.4 °F 16% 29.90 in 10.0 mi NE 9.2 mph - N/A   Clear
5:35 AM 62.6 °F 10.4 °F 13% 29.90 in 10.0 mi NNE 8.1 mph - N/A   Clear
5:55 AM 64.4 °F 10.4 °F 12% 29.91 in 10.0 mi NNE 8.1 mph - N/A   Clear
6:15 AM 64.4 °F 10.4 °F 12% 29.92 in 10.0 mi NNE 5.8 mph - N/A   Clear
6:35 AM 64.4 °F 12.2 °F 13% 29.94 in 10.0 mi NE 4.6 mph - N/A   Clear
6:55 AM 51.8 °F 8.6 °F 18% 29.96 in 10.0 mi South 6.9 mph - N/A   Clear
7:15 AM 50.0 °F 8.6 °F 19% 29.96 in 10.0 mi SSE 5.8 mph - N/A   Clear
7:35 AM 55.4 °F 8.6 °F 15% 29.97 in 10.0 mi North - - N/A   Clear
7:55 AM 62.6 °F 12.2 °F 14% 29.97 in 10.0 mi SSE 5.8 mph - N/A   Clear
8:15 AM 66.2 °F 12.2 °F 12% 29.98 in 10.0 mi South 9.2 mph - N/A   Clear
8:35 AM 68.0 °F 12.2 °F 12% 29.99 in 10.0 mi South 6.9 mph - N/A   Clear
8:55 AM 69.8 °F 14.0 °F 12% 30.00 in 10.0 mi SSE 4.6 mph - N/A   Clear
9:15 AM 71.6 °F 12.2 °F 10% 30.00 in 10.0 mi SSE 5.8 mph - N/A   Clear
9:35 AM 73.4 °F 14.0 °F 10% 30.00 in 10.0 mi South 5.8 mph - N/A   Clear
9:55 AM 75.2 °F 14.0 °F 10% 30.00 in 10.0 mi South 5.8 mph - N/A   Clear
10:15 AM 77.0 °F 14.0 °F 9% 30.00 in 10.0 mi Calm Calm - N/A   Clear
10:35 AM 78.8 °F 14.0 °F 9% 30.00 in 10.0 mi NNW 5.8 mph - N/A   Clear
10:55 AM 80.6 °F 14.0 °F 8% 30.00 in 10.0 mi NW 3.5 mph - N/A   Clear
11:15 AM 80.6 °F 14.0 °F 8% 30.00 in 10.0 mi West 5.8 mph - N/A   Clear
11:35 AM 82.4 °F 15.8 °F 8% 30.00 in 10.0 mi ESE 5.8 mph - N/A   Clear
11:55 AM 82.4 °F 15.8 °F 8% 30.00 in 10.0 mi SW 9.2 mph 19.6 mph N/A   Clear
12:15 PM 84.2 °F 14.0 °F 7% 29.99 in 10.0 mi West 8.1 mph - N/A   Clear
12:35 PM 82.4 °F 14.0 °F 8% 29.99 in 10.0 mi West 10.4 mph 19.6 mph N/A   Clear
12:55 PM 82.4 °F 14.0 °F 8% 29.99 in 10.0 mi WSW 5.8 mph - N/A   Clear
1:15 PM 84.2 °F 10.4 °F 6% 29.98 in 10.0 mi WNW 10.4 mph 18.4 mph N/A   Clear
1:35 PM 84.2 °F 12.2 °F 7% 29.98 in 10.0 mi West 10.4 mph - N/A   Clear
1:55 PM 86.0 °F 14.0 °F 7% 29.98 in 10.0 mi South 5.8 mph 17.3 mph N/A   Clear
2:15 PM 86.0 °F 12.2 °F 6% 29.98 in 10.0 mi SSE 4.6 mph - N/A   Clear
2:35 PM 84.2 °F 10.4 °F 6% 29.97 in 10.0 mi SSE 5.8 mph 18.4 mph N/A   Clear
2:55 PM 86.0 °F 12.2 °F 6% 29.97 in 10.0 mi SSE 3.5 mph 16.1 mph N/A   Clear
3:15 PM 87.8 °F 8.6 °F 5% 29.96 in 10.0 mi SW 13.8 mph 23.0 mph N/A   Clear
3:35 PM 89.6 °F 10.4 °F 5% 29.95 in 10.0 mi SW 12.7 mph 23.0 mph N/A   Clear
3:55 PM 87.8 °F 10.4 °F 6% 29.94 in 10.0 mi South 6.9 mph - N/A   Clear
4:15 PM 86.0 °F 8.6 °F 5% 29.94 in 10.0 mi WSW 4.6 mph - N/A   Clear
4:35 PM 86.0 °F 8.6 °F 5% 29.94 in 10.0 mi SW 9.2 mph - N/A   Clear
4:55 PM 87.8 °F 8.6 °F 5% 29.94 in 10.0 mi SW 12.7 mph 31.1 mph N/A   Clear
5:15 PM 86.0 °F 6.8 °F 5% 29.94 in 10.0 mi SW 20.7 mph 27.6 mph N/A   Clear
5:35 PM 84.2 °F 6.8 °F 5% 29.94 in 10.0 mi South 17.3 mph 21.9 mph N/A   Clear
5:55 PM 84.2 °F 5.0 °F 5% 29.95 in 10.0 mi South 13.8 mph - N/A   Clear
6:15 PM 82.4 °F 5.0 °F 5% 29.95 in 10.0 mi SW 11.5 mph 18.4 mph N/A   Clear
6:35 PM 84.2 °F 5.0 °F 5% 29.95 in 10.0 mi SSW 11.5 mph 19.6 mph N/A   Clear
6:55 PM 82.4 °F 6.8 °F 6% 29.96 in 10.0 mi SSW 12.7 mph 16.1 mph N/A   Clear
7:35 PM 80.6 °F 8.6 °F 6% 29.97 in 10.0 mi South 8.1 mph - N/A   Clear
7:55 PM 73.4 °F 8.6 °F 8% 29.97 in 10.0 mi South 9.2 mph - N/A   Clear
8:35 PM 68.0 °F 6.8 °F 9% 29.99 in 10.0 mi SSE 6.9 mph - N/A   Clear
8:55 PM 68.0 °F 6.8 °F 9% 29.99 in 10.0 mi SE 9.2 mph - N/A   Clear
9:15 PM 66.2 °F 6.8 °F 10% 30.00 in 10.0 mi SSE 10.4 mph - N/A   Clear
9:35 PM 66.2 °F 6.8 °F 10% 30.00 in 10.0 mi SSE 11.5 mph - N/A   Clear
9:55 PM 68.0 °F 6.8 °F 9% 30.01 in 10.0 mi SSE 10.4 mph - N/A   Clear
10:15 PM 66.2 °F 5.0 °F 9% 30.01 in 10.0 mi SSE 9.2 mph - N/A   Clear
10:35 PM 64.4 °F 6.8 °F 10% 30.01 in 10.0 mi SSE 10.4 mph - N/A   Clear
10:55 PM 68.0 °F 6.8 °F 9% 30.02 in 10.0 mi South 9.2 mph - N/A   Clear
11:15 PM 66.2 °F 6.8 °F 10% 30.02 in 10.0 mi South 11.5 mph 19.6 mph N/A   Clear
11:35 PM 66.2 °F 8.6 °F 11% 30.02 in 10.0 mi South 10.4 mph - N/A   Clear
11:55 PM 64.4 °F 10.4 °F 12% 30.03 in 10.0 mi SSW 4.6 mph - N/A   Clear